Regional Weather Roundup
Issued by NWS

Current Version | Previous Version | Text Only | Print | Product List | Glossary On
Versions: 1 2 3 4 5 6 7 8 9 10 11 12 13 14 15 16 17 18 19 20 21 22 23 24 25 26 27
000
ASUS42 KTBW 232110
RWRFL
FLORIDA REGIONAL WEATHER ROUNDUP
NATIONAL WEATHER SERVICE TAMPA BAY RUSKIN FL
500 PM EDT WED APR 23 2014

NOTE: "FAIR" INDICATES FEW OR NO CLOUDS BELOW 12,000 FEET WITH NO
SIGNIFICANT WEATHER AND/OR OBSTRUCTIONS TO VISIBILITY.


FLZ001>010-012>015-112-114-115-232200-
PANHANDLE FLORIDA

CITY           SKY/WX    TMP DP  RH WIND       PRES   REMARKS
PENSACOLA      MOSUNNY   80  62  54 S10       29.90F
PENSACOLA NAS  MOSUNNY   75  65  70 S13       29.90F
MILTON NAS     MOSUNNY   80  63  55 S8        29.89F
CRESTVIEW      PTSUNNY   85  58  39 N6        29.90F
DUKE FIELD     PTSUNNY   83  62  50 SW6       29.87F
VALPARAISO     MOSUNNY   78  65  64 SW13      29.89F
MARY ESTHER    SUNNY     75  61  63 SW10      29.89F
PANAMA CITY    FAIR      79  63  57 S12       29.87F
TYNDALL AFB    SUNNY     75  72  89 SW10      29.90F
APALACHICOLA   SUNNY     76  66  71 SW12      29.89F

STATION/POSITION SKY/WX   TEMP    WIND        PRES    WAVE   SWELL
                          AIR SEA DIR/SP/G            HT/PER HT/PER
                          (F)     (DEG/KT/KT) (MB)    (FT/S) (FT/S)
30.1N   87.6W              70 72  200/  8/ 10 1012.9F   1
29.2N   88.2W              71 73   CALM  /  4 1013.7F
28.8N   86.0W              71 72  260/  2/  4 1013.8F   1/ 4
PANAMA CITY BEAC           70 69  240/  9/ 10 1012.3F
CAPE SAN BLAS    NOT AVBL
TOWER C                    69     230/  9/ 10 1012.4F
28.5N   84.5W              71 73  290/  4/  4 1013.1F   1/ 4

$$
FLZ011-016>038-118-127-128-134-139-239-232200-
NORTH FLORIDA

CITY           SKY/WX    TMP DP  RH WIND       PRES   REMARKS
MARIANNA       SUNNY     84  57  39 W5        29.87F
TALLAHASSEE    PTSUNNY   85  56  37 NW5       29.87F
PERRY          SUNNY     77  64  65 SW9       29.89F
CROSS CITY       N/A     79  64  60 W9        29.88F
GAINESVILLE    MOSUNNY   84  60  44 VRB3      29.86F
MAYPORT NAS    MOSUNNY   78  63  59 SE10      29.85F
JACKSONVILLE   MOSUNNY   84  60  44 NW10      29.84F
JAX NAS        MOSUNNY   86  58  38 W8        29.85F
JAX CRAIG      MOSUNNY   86  60  41 N10       29.85F
JAX CECIL      PTSUNNY   82  61  47 NW6       29.85F
FERNANDINA BEA MOCLDY    77  63  61 SE9       29.85S
ST AUGUSTINE   MOSUNNY   76  65  68 SE10      29.87F

STATION/POSITION SKY/WX   TEMP    WIND        PRES    WAVE   SWELL
                          AIR SEA DIR/SP/G            HT/PER HT/PER
                          (F)     (DEG/KT/KT) (MB)    (FT/S) (FT/S)
SHELL POINT                73     180/ 10/ 12 1011.5F
KEATON BEACH               69     240/ 12/ 13 1012.3F
CEDAR KEY                  71     280/  9/ 12 1012.9F
FERNANDINA                 78 64  110/  6/  9 1010.2S
30.7N   81.3W                 71                N/A     1/ 8
MAYPORT                    75 65  140/  9/ 11   N/A
31.4N   80.9W              70 68  180/  4/  6 1010.5F   1/ 9   2/ 9
ST AUGUSTINE               70     160/  9/ 10 1011.8F

$$
FLZ040-043>046-052-053-057-058-063-144-232200-
INTERIOR CENTRAL FLORIDA

CITY           SKY/WX    TMP DP  RH WIND       PRES   REMARKS
OCALA          PTSUNNY   82  63  51 SW9       29.88F
THE VILLAGES     N/A     84  61  45 SW8       29.87F
LEESBURG       MOSUNNY   82  60  47 S6        29.88F
SANFORD        MOSUNNY   83  59  44 CALM      29.86F
ORLANDO EXEC   SUNNY     85  55  35 NW5       29.87F
ORLANDO INTL   MOSUNNY   84  57  39 W7        29.87F
KISSIMMEE      PTSUNNY   84  61  45 SW5       29.88F
WINTER HAVEN     N/A    N/A N/A N/A MISG      29.89F
BARTOW         MOSUNNY   82  57  42 NW8       29.89F
OKEECHOBEE     MOSUNNY   81  64  57 SE9       29.88F

$$
FLZ041-047-054-059-064-141-147-232200-
EAST CENTRAL FLORIDA

CITY           SKY/WX    TMP DP  RH WIND       PRES   REMARKS
ORMOND BEACH   SUNNY     77  63  61 E9        29.87F
DAYTONA BEACH  MOSUNNY   79  63  57 E9        29.87F
DELAND         PTCLDY    82  61  47 W6        29.87F
NEW SMYRNA BEA MOSUNNY   77  63  61 E12       29.89F
JFK SPACE CTR  SUNNY     80  63  56 SE9       29.87F
TITUSVILLE     MOSUNNY   79  63  57 E14       29.87F
CAPE CANAVERAL SUNNY     78  63  60 E8        29.87F
PATRICK AFB    SUNNY     77  64  65 E10       29.88F
MELBOURNE      SUNNY     78  61  55 E10       29.88S
VERO BEACH     SUNNY     78  63  59 E9        29.89S
FT PIERCE      SUNNY     78  63  59 E8        29.89S
STUART         MOSUNNY  N/A N/A N/A E10       29.90F

STATION/POSITION SKY/WX   TEMP    WIND        PRES    WAVE   SWELL
                          AIR SEA DIR/SP/G            HT/PER HT/PER
                          (F)     (DEG/KT/KT) (MB)    (FT/S) (FT/S)
28.5N   80.2W              74 80   CALM  /  2 1012.5F
28.9N   78.5W              74 76  300/ 10/ 12 1012.1S   3/ 9   3/ 9
TRIDENT PIER               78 74   90/  5/  9 1011.2F
28.4N   80.5W                 74                N/A     1/ 9
27.6N   80.2W                 74                N/A     2/ 9

$$
FLZ050-056-061-142-242-148-248-149-249-151-251-155-255-
160-260-232200-
WEST CENTRAL FLORIDA

CITY           SKY/WX    TMP DP  RH WIND       PRES   REMARKS
CRYSTAL RIVER  FAIR      75  63  64 W9        29.90F
INVERNESS      FAIR      81  59  47 W6        29.89S
BROOKSVILLE    SUNNY     78  62  57 W10       29.91F
CLEARWATER     SUNNY     76  61  59 W9        29.91F
TAMPA INTL     MOSUNNY   76  62  62 W12       29.90F
TAMPA EXEC     SUNNY     82  61  47 SW3       29.89F
PLANT CITY     MOSUNNY   84  59  42 W8        29.90F
MACDILL AFB    SUNNY     79  65  62 VRB7      29.90F
PETER O KNIGHT SUNNY     81  63  54 W6        29.90F
ST PETERSBURG  SUNNY     76  62  62 VRB3      29.88F
SARASOTA       SUNNY     75  62  64 W14       29.91F
VENICE         FAIR      73  63  68 W10       29.93S

STATION/POSITION SKY/WX   TEMP    WIND        PRES    WAVE   SWELL
                          AIR SEA DIR/SP/G            HT/PER HT/PER
                          (F)     (DEG/KT/KT) (MB)    (FT/S) (FT/S)
CEDAR KEY                  71     280/  9/ 12 1012.9F
28.5N   84.5W              71 73  290/  4/  4 1013.1F   1/ 4
27.3N   84.3W                 78                N/A     1/ 4
CLEARWATER BEACH           70 73  310/  8/  9 1012.7S
MIDDLE TAMPA BAY           71     300/ 11/ 12 1013.0F
VENICE                     71 75  290/  8/  9 1012.8F

$$
FLZ066-069-070-075>078-162-262-165-265-232200-
SOUTHWEST FLORIDA AND KEYS

CITY           SKY/WX    TMP DP  RH WIND       PRES   REMARKS
PUNTA GORDA    SUNNY     81  62  52 W13       29.91F
FT MYERS       SUNNY     80  63  55 W16       29.90F
SOUTHWEST INTL SUNNY     79  61  53 NW7G17    29.90F
NAPLES         SUNNY     77  64  64 W17       29.91F
MARATHON       SUNNY     80  64  58 NW8       29.93S
KEY WEST NAS   MOSUNNY   78  64  61 N9        29.93F
KEY WEST INTL  MOSUNNY   78  64  61 W6        29.94F

STATION/POSITION SKY/WX   TEMP    WIND        PRES    WAVE   SWELL
                          AIR SEA DIR/SP/G            HT/PER HT/PER
                          (F)     (DEG/KT/KT) (MB)    (FT/S) (FT/S)
VENICE                     71 75  290/  8/  9 1012.8F
NAPLES                     73 79  310/ 14/ 16 1013.3F
26.0N   85.6W              77 84   30/  2/  6 1013.3F   1/ 8
DRY TORTUGAS     NOT AVBL
NW FL BAY                  75     300/  5/  9 1014.2F
SOMBRERO KEY               76     290/  4/  5 1014.2F
LONG KEY                   75 81  280/  8/ 11 1014.2F
MOLASSES REEF              75 81  240/ 14/ 16 1012.6F

$$
FLZ067-068-071>074-168-172>174-232200-
SOUTHEAST FLORIDA

CITY           SKY/WX    TMP DP  RH WIND       PRES   REMARKS
W PALM BEACH   MOSUNNY   80  65  59 E9        29.87F
FT LAUDER-EXEC MOSUNNY   82  64  54 SE12      29.88F
FT LAUDERDALE  MOSUNNY   82  64  54 SE13      29.88F
POMPANO BEACH  MOSUNNY   81  65  58 SE13      29.89S
PEMBROKE PINES MOSUNNY   83  64  52 SE14      29.89F
MIAMI          MOSUNNY   85  59  41 CALM      29.89F
WEST KENDALL   SUNNY     84  60  44 VRB3      29.88F
HOMESTEAD      MOSUNNY   85  69  59 S12       29.88F

STATION/POSITION SKY/WX   TEMP    WIND        PRES    WAVE   SWELL
                          AIR SEA DIR/SP/G            HT/PER HT/PER
                          (F)     (DEG/KT/KT) (MB)    (FT/S) (FT/S)
PORT EVERGLADES            77     140/ 10/ 12 1012.1
VIRGINIA KEY               77 80  160/ 12/ 14 1012.3F
LAKE WORTH                 76 79  130/  5/  6 1011.6S
FOWEY ROCKS                77 78  170/ 16/ 17 1012.2F
SETTLEMENT POINT           76     280/  7/  8 1013.0S

$$




USA.gov is the U.S. government's official web portal to all federal, state and local government web resources and services.